Waarnemingen

Advertentie
Mijn weer
Gaddede A, Zweden (2219): temperatuur & dauwpunt: 17.10.2020 04:00:00 - 23.10.2020 04:00:00 (CEST)Gaddede A, Zweden (2219): windsnelheid & windstoten: 17.10.2020 04:00:00 - 23.10.2020 04:00:00 (CEST)Gaddede A, Zweden (2219): windrichting: 17.10.2020 04:00:00 - 23.10.2020 04:00:00 (CEST)Gaddede A, Zweden (2219): luchtdruk: 17.10.2020 04:00:00 - 23.10.2020 04:00:00 (CEST)Gaddede A, Zweden (2219): zicht: 17.10.2020 04:00:00 - 23.10.2020 04:00:00 (CEST)Gaddede A, Zweden (2219): neerslag: 17.10.2020 04:00:00 - 23.10.2020 04:00:00 (CEST)
Datum & Tijd tt [°C] td [°C] ff [km/u] ff [kn] fx [km/u] fx [kn] dd ppp [hPa] vv [km] rr [mm]
23.10.2020 04:00:00 -3,9 -4,4 5 3 11 6 W 1000,3 13 0,0
23.10.2020 03:00:00 -4,3 -4,8 6 3 14 8 NW 1000,2 30 0,0
23.10.2020 02:00:00 -4,6 -5,1 8 5 16 9 NW 1000,2 38 0,0
23.10.2020 01:00:00 -4,5 -5,0 11 6 18 10 NW 1000,2 41 0,0
23.10.2020 00:00:00 -5,1 -5,8 9 5 14 8 NW 1000,2 32 0,0
22.10.2020 23:00:00 -6,9 -7,6 5 3 11 6 NNW 1000,3 50 0,0
22.10.2020 22:00:00 -5,3 -6,4 6 4 12 7 NNW 1000,1 50 0,0
22.10.2020 21:00:00 -5,8 -6,9 6 3 10 6 NNW 1000,2 50 0,0
22.10.2020 20:00:00 -6,9 -8,8 5 3 11 6 N 1000,2 14 0,0
22.10.2020 19:00:00 -3,3 -7,1 5 3 17 9 NW 999,7 50 0,0
22.10.2020 18:00:00 -2,1 -5,6 7 4 19 10 NW 999,4 50 0,0
22.10.2020 17:00:00 -1,8 -3,4 5 3 13 7 W 999,1 50 0,0
22.10.2020 16:00:00 -1,8 -3,1 5 3 9 5 W 999,0 50 0,0
22.10.2020 15:00:00 -1,7 -3,3 5 3 13 7 W 999,1 50 0,0
22.10.2020 14:00:00 -1,9 -3,6 5 3 10 5 W 999,1 50 0,0
22.10.2020 13:00:00 -2,2 -4,0 4 2 7 4 WZW 999,2 50 0,0
22.10.2020 12:00:00 -2,0 -4,2 4 2 8 4 W 999,2 44 0,0
22.10.2020 11:00:00 -3,3 -4,3 6 3 8 4 OZO 999,5 21 0,0
22.10.2020 10:00:00 -4,2 -5,3 4 2 6 3 O 999,6 16 0,0
22.10.2020 09:00:00 -4,2 -5,0 3 2 9 5 ONO 999,5 15 0,0
22.10.2020 08:00:00 -4,0 -5,0 4 2 9 5 ONO 999,3 16 0,0
22.10.2020 07:00:00 -4,1 -5,2 5 3 10 5 ONO 999,5 13 0,0
22.10.2020 06:00:00 -4,1 -5,2 3 2 6 4 O 999,7 32 0,0
22.10.2020 05:00:00 -3,2 -4,5 4 2 14 7 O 999,8 26 0,0
22.10.2020 04:00:00 -3,2 -4,5 8 4 13 7 O 1000,2 50 0,0
22.10.2020 03:00:00 -3,1 -4,1 5 3 - - O 1000,4 37 0,0
22.10.2020 02:00:00 -3,0 -3,8 6 3 12 7 OZO 1000,8 41 0,0
22.10.2020 01:00:00 -2,8 -3,8 5 3 11 6 OZO 1000,8 36 0,0
22.10.2020 00:00:00 -2,6 -3,7 5 3 10 6 ZO 1001,2 37 0,0
21.10.2020 23:00:00 -2,7 -3,7 4 2 10 5 ZO 1001,3 31 0,0
21.10.2020 22:00:00 -2,6 -3,7 5 3 9 5 O 1001,6 16 -
21.10.2020 21:00:00 -3,2 -4,2 0 0 5 3 N 1001,7 31 0,0
21.10.2020 20:00:00 -2,1 -3,8 0 0 10 5 N 1001,7 36 0,0
21.10.2020 19:00:00 -1,9 -3,5 6 3 12 7 ZZO 1001,9 8 0,0
21.10.2020 18:00:00 -1,6 -3,5 8 4 11 6 OZO 1001,7 21 0,0
21.10.2020 17:00:00 -1,2 -3,7 7 4 20 11 ZO 1001,9 23 0,0
21.10.2020 16:00:00 -1,0 -3,7 10 5 21 12 OZO 1002,1 30 0,0
21.10.2020 15:00:00 -0,9 -3,6 13 7 28 15 O 1001,9 11 0,0
21.10.2020 14:00:00 -1,0 -3,0 13 7 35 19 O 1002,0 7 0,1
21.10.2020 13:00:00 -1,2 -2,8 17 9 45 24 O 1002,0 2,5 0,2
21.10.2020 12:00:00 -1,4 -3,4 18 10 45 25 O 1002,3 2,4 0,2
21.10.2020 11:00:00 -1,5 -3,7 23 12 51 28 O 1002,1 3,6 0,1
21.10.2020 10:00:00 -1,7 -3,6 25 14 53 29 O 1002,1 1,7 0,2
21.10.2020 09:00:00 -1,8 -3,7 31 17 58 31 O 1002,0 1,0 0,2
21.10.2020 08:00:00 -1,6 -3,5 36 19 65 35 O 1001,8 0,8 0,2
21.10.2020 07:00:00 -1,6 -3,3 39 21 69 37 O 1002,2 0,7 0,2
21.10.2020 06:00:00 -1,4 -3,4 37 20 67 36 O 1002,5 1,1 0,2
21.10.2020 05:00:00 -1,3 -3,3 33 18 67 36 O 1003,0 1,8 0,1
21.10.2020 04:00:00 -1,3 -3,0 31 17 60 33 O 1003,7 1,2 0,3
21.10.2020 03:00:00 -1,4 -3,0 29 16 58 32 O 1004,5 0,9 0,2
21.10.2020 02:00:00 -1,7 -3,6 27 15 56 30 O 1005,2 1,6 0,2
21.10.2020 01:00:00 -2,0 -4,0 27 14 56 31 O 1006,4 2,3 0,1
21.10.2020 00:00:00 -2,2 -4,1 23 12 49 26 O 1007,4 2,2 0,2
20.10.2020 23:00:00 -2,2 -4,5 23 13 52 28 OZO 1008,4 3,0 0,1
20.10.2020 22:00:00 -2,3 -4,5 23 12 42 23 O 1009,6 5 0,1
20.10.2020 21:00:00 -2,7 -4,9 20 11 45 24 OZO 1010,4 8 0,0
20.10.2020 20:00:00 -2,7 -4,7 20 11 36 19 OZO 1011,3 9 0,0
20.10.2020 19:00:00 -2,6 -4,5 21 12 36 20 O 1012,1 10 0,0
20.10.2020 18:00:00 -2,7 -4,4 17 9 36 19 OZO 1012,8 6 0,0
20.10.2020 17:00:00 -2,9 -4,3 15 8 32 17 OZO 1013,6 9 0,0
20.10.2020 16:00:00 -2,9 -4,8 11 6 28 15 OZO 1014,5 30 0,0
20.10.2020 15:00:00 -3,1 -5,1 12 7 31 17 OZO 1015,1 10 0,0
20.10.2020 14:00:00 -3,1 -6,1 13 7 31 17 OZO 1015,9 19 0,0
20.10.2020 13:00:00 -3,2 -6,3 15 8 34 19 OZO 1016,3 19 0,0
20.10.2020 12:00:00 -3,3 -6,3 13 7 33 18 ZO 1016,8 21 0,0
20.10.2020 11:00:00 -3,7 -6,0 14 7 31 17 OZO 1017,0 25 0,0
20.10.2020 10:00:00 -3,7 -5,9 17 9 29 15 OZO 1017,0 16 0,0
20.10.2020 09:00:00 -3,5 -5,2 13 7 29 16 OZO 1017,2 15 0,0
20.10.2020 08:00:00 -3,5 -5,0 8 4 21 11 ZO 1017,5 14 0,0
20.10.2020 07:00:00 -3,4 -5,1 10 5 19 10 O 1017,6 16 0,0
20.10.2020 06:00:00 -3,1 -5,0 9 5 20 11 O 1017,7 18 0,0
20.10.2020 05:00:00 -2,9 -4,8 7 4 17 9 O 1018,1 15 0,0
20.10.2020 04:00:00 -2,9 -4,8 8 5 18 10 O 1018,3 13 0,0
20.10.2020 03:00:00 -2,8 -4,5 8 4 16 9 OZO 1018,3 14 0,0
20.10.2020 02:00:00 -3,1 -4,8 6 3 17 9 OZO 1018,2 12 0,0
20.10.2020 01:00:00 -3,0 -4,3 5 3 14 8 OZO 1018,1 11 0,0
20.10.2020 00:00:00 -4,8 -5,6 2 1 8 4 ONO 1018,2 8 0,0
19.10.2020 23:00:00 -4,1 -4,8 5 3 8 4 O 1018,0 7 0,0
19.10.2020 22:00:00 -4,2 -5,2 2 1 5 3 O 1018,1 9 0,1
19.10.2020 21:00:00 -3,3 -4,3 3 2 4 2 O 1017,6 8 0,1
19.10.2020 20:00:00 -3,1 -4,4 0 0 4 2 N 1017,2 10 0,0
19.10.2020 19:00:00 -2,6 -4,0 0 0 4 2 N 1016,6 10 0,1
19.10.2020 18:00:00 -2,2 -4,1 0 0 5 3 N 1016,1 6 0,1
19.10.2020 17:00:00 -1,6 -4,3 3 2 10 5 W 1015,6 6 0,0
19.10.2020 16:00:00 -1,0 -4,9 5 3 14 7 WNW 1015,1 18 0,0
19.10.2020 15:00:00 -1,3 -4,5 6 3 14 8 WNW 1014,7 50 0,0
19.10.2020 14:00:00 -1,7 -4,4 7 4 16 9 NW 1014,5 50 0,0
19.10.2020 13:00:00 -1,7 -3,9 6 4 16 8 W 1013,9 47 -
19.10.2020 12:00:00 - - - - - - - - - -
19.10.2020 11:00:00 -3,3 -4,7 7 4 21 12 WNW 1012,9 2,2 0,1
19.10.2020 10:00:00 -3,4 -5,4 9 5 17 9 WNW 1012,3 2,1 0,1
19.10.2020 09:00:00 -2,9 -8,0 5 3 21 11 W 1011,4 23 0,0
19.10.2020 08:00:00 -2,9 -9,0 8 4 19 10 WNW 1010,7 22 0,0
19.10.2020 07:00:00 -2,8 -9,7 8 4 23 12 W 1010,2 50 0,0
19.10.2020 06:00:00 -3,1 -10,0 11 6 19 11 WNW 1009,6 50 0,0
19.10.2020 05:00:00 -3,8 -10,6 10 6 18 10 WNW 1009,4 50 0,0
19.10.2020 04:00:00 -4,1 -11,1 9 5 20 11 NW 1009,1 50 0,0
19.10.2020 03:00:00 -4,5 -11,1 12 7 21 11 NW 1008,9 50 0,0
19.10.2020 02:00:00 -3,8 -11,3 12 6 24 13 W 1008,4 50 0,0
19.10.2020 01:00:00 -4,6 -11,0 9 5 21 11 NW 1008,1 50 0,0
19.10.2020 00:00:00 -5,4 -11,3 6 3 23 13 NW 1008,0 50 0,0
18.10.2020 23:00:00 -3,7 -10,3 13 7 22 12 W 1007,6 50 0,0
18.10.2020 22:00:00 -3,8 -9,6 6 3 16 8 WNW 1007,5 50 0,0
18.10.2020 21:00:00 -3,7 -9,1 8 5 20 11 WNW 1007,6 50 0,0
18.10.2020 20:00:00 -3,5 -8,9 10 5 17 9 WNW 1007,2 50 0,0
18.10.2020 19:00:00 -3,2 -9,0 8 5 24 13 W 1007,0 24 0,0
18.10.2020 18:00:00 -2,7 -9,0 6 3 15 8 W 1006,8 14 0,0
18.10.2020 17:00:00 -1,7 -8,9 9 5 32 18 W 1006,3 15 0,0
18.10.2020 16:00:00 -0,4 -9,1 14 7 38 21 WNW 1006,0 19 0,0
18.10.2020 15:00:00 -0,1 -9,5 16 9 36 19 WNW 1006,1 14 0,0
18.10.2020 14:00:00 -0,2 -9,9 7 4 30 16 NW 1006,2 40 0,0
18.10.2020 13:00:00 0,0 -8,9 13 7 38 21 W 1006,0 15 0,0
18.10.2020 12:00:00 -0,4 -5,8 14 8 28 15 WNW 1006,0 19 0,0
18.10.2020 11:00:00 -0,9 -7,7 8 4 21 12 WNW 1006,3 19 0,0
18.10.2020 10:00:00 -1,7 -7,2 12 6 22 12 WNW 1006,4 20 0,0
18.10.2020 09:00:00 -2,6 -6,6 8 4 16 9 WNW 1005,9 25 0,0
18.10.2020 08:00:00 -1,7 -6,4 8 5 19 11 WNW 1005,4 21 0,0
18.10.2020 07:00:00 -2,0 -5,7 5 3 15 8 WNW 1004,9 20 0,0
18.10.2020 06:00:00 -2,2 -5,2 8 4 24 13 WNW 1005,0 19 0,0
18.10.2020 05:00:00 -2,2 -5,5 10 5 22 12 WNW 1004,6 19 0,0
18.10.2020 04:00:00 -2,3 -5,6 10 5 18 10 W 1004,3 19 0,0
18.10.2020 03:00:00 -1,5 -6,1 8 4 24 13 NNO 1003,8 28 0,2
18.10.2020 02:00:00 -1,5 -2,5 10 6 24 13 WNW 1002,9 21 0,0
18.10.2020 01:00:00 -1,7 -2,7 10 5 29 16 WNW 1002,5 11 0,0
18.10.2020 00:00:00 -1,5 -2,1 9 5 22 12 W 1002,3 18 0,0
17.10.2020 23:00:00 -1,6 -2,2 10 5 23 13 WNW 1002,1 19 0,0
17.10.2020 22:00:00 -1,3 -1,6 9 5 22 12 WNW 1002,0 15 0,1
17.10.2020 21:00:00 -1,7 -2,1 12 7 27 14 W 1002,3 1,7 0,5
17.10.2020 20:00:00 -1,3 -2,1 11 6 23 13 W 1002,2 2,5 0,2
17.10.2020 19:00:00 -1,1 -2,4 8 4 27 15 W 1002,7 8 0,1
17.10.2020 18:00:00 -0,8 -2,1 8 5 18 10 W 1003,5 9 0,0
17.10.2020 17:00:00 -0,7 -2,6 11 6 32 18 W 1003,9 7 0,0
17.10.2020 16:00:00 0,0 -2,4 15 8 38 20 W 1004,8 15 0,0
17.10.2020 15:00:00 0,8 -1,8 19 11 36 19 WNW 1005,9 38 0,0
17.10.2020 14:00:00 0,6 -0,3 19 10 40 22 W 1006,6 1,5 0,1
17.10.2020 13:00:00 1,5 -0,1 13 7 41 22 W 1006,9 50 0,0
17.10.2020 12:00:00 2,2 0,7 16 9 42 23 W 1006,9 50 0,0
17.10.2020 11:00:00 2,5 0,6 16 8 39 21 W 1007,0 50 0,0
17.10.2020 10:00:00 2,6 1,6 17 9 39 21 W 1007,2 24 0,0
17.10.2020 09:00:00 2,2 1,3 20 11 45 24 W 1007,7 37 0,0
17.10.2020 08:00:00 2,4 1,7 22 12 50 27 W 1008,4 34 0,0
17.10.2020 07:00:00 2,8 1,5 22 12 51 27 W 1009,1 41 0,0
17.10.2020 06:00:00 2,8 1,8 19 11 49 26 W 1010,4 45 0,0
17.10.2020 05:00:00 3,1 1,5 20 11 46 25 W 1011,6 50 0,0
17.10.2020 04:00:00 3,7 3,3 18 10 52 28 W 1012,5 15 0,0

tt = temperatuur
td = dauwpunt
ff = windsnelheid
fx = windstoten
dd = windrichting
ppp = luchtdruk
vv = zicht
rr = neerslag

Weerstations in de omgeving